THY5WB LTAJ-LTAC

Flight info

Callsign THY5WB
Flight time 1h 16m
Altitude 34000
Route POGEN UL605 REMPO UA17 RATSI UL605 BELSU UA17 YUCEL
Aircraft B738/M-SDE2E3FGHIRWXY/LB1

Departure

Time 2026-04-21 15:03
Airport Gaziantep Oğuzeli International Airport (LTAJ)

Arrival

Time 2026-04-21 16:20
Airport Esenboğa International Airport (LTAC)
Time Latitude Longitude Altitude Speed Heading
2026-04-21 14:12 36.94599 37.47385 2321 ft 0 kts 198°
2026-04-21 14:49 36.94609 37.47389 2321 ft 2 kts 198°
2026-04-21 14:50 36.94618 37.47393 2321 ft 2 kts 198°
2026-04-21 14:50 36.94633 37.47396 2321 ft 2 kts 175°
2026-04-21 14:50 36.94647 37.47392 2321 ft 2 kts 160°
2026-04-21 14:50 36.94660 37.47384 2321 ft 2 kts 143°
2026-04-21 14:51 36.94671 37.47371 2321 ft 2 kts 126°
2026-04-21 14:51 36.94677 37.47356 2321 ft 1 kts 110°
2026-04-21 14:51 36.94679 37.47348 2321 ft 1 kts 104°
2026-04-21 14:51 36.94679 37.47346 2321 ft 0 kts 105°
2026-04-21 14:55 36.94679 37.47349 2321 ft 2 kts 106°
2026-04-21 14:55 36.94678 37.47414 2321 ft 7 kts 49°
2026-04-21 14:55 36.94719 37.47450 2321 ft 6 kts 69°
2026-04-21 14:55 36.94704 37.47576 2321 ft 22 kts 106°
2026-04-21 14:56 36.94663 37.47767 2321 ft 23 kts 104°
2026-04-21 14:56 36.94624 37.47948 2321 ft 19 kts 105°
2026-04-21 14:56 36.94591 37.48097 2321 ft 16 kts 105°
2026-04-21 14:56 36.94562 37.48230 2321 ft 17 kts 105°
2026-04-21 14:57 36.94528 37.48389 2321 ft 17 kts 106°
2026-04-21 14:57 36.94488 37.48575 2321 ft 28 kts 106°
2026-04-21 14:57 36.94440 37.48798 2321 ft 24 kts 105°
2026-04-21 14:57 36.94400 37.48984 2321 ft 20 kts 106°
2026-04-21 14:58 36.94365 37.49146 2321 ft 17 kts 105°
2026-04-21 14:58 36.94339 37.49268 2321 ft 8 kts 105°
2026-04-21 14:58 36.94326 37.49325 2321 ft 6 kts 105°
2026-04-21 14:58 36.94323 37.49336 2321 ft 0 kts 105°
2026-04-21 14:59 36.94320 37.49358 2321 ft 9 kts 95°
2026-04-21 14:59 36.94347 37.49406 2321 ft 5 kts 23°
2026-04-21 14:59 36.94368 37.49413 2321 ft 0 kts 13°
2026-04-21 15:01 36.94439 37.49431 2321 ft 10 kts 350°
2026-04-21 15:01 36.94477 37.49384 2321 ft 5 kts 290°
2026-04-21 15:02 36.94481 37.49370 2321 ft 6 kts 288°
2026-04-21 15:02 36.94551 37.49041 2321 ft 48 kts 285°
2026-04-21 15:02 36.94660 37.48537 2321 ft 87 kts 284°
2026-04-21 15:02 36.94868 37.47567 2321 ft 143 kts 285°
2026-04-21 15:03 36.95184 37.46184 2483 ft 174 kts 288°
2026-04-21 15:03 36.95542 37.44742 3035 ft 178 kts 284°
2026-04-21 15:03 36.95826 37.43269 3748 ft 175 kts 283°
2026-04-21 15:03 36.96069 37.41725 4077 ft 190 kts 281°
2026-04-21 15:04 36.96365 37.39986 4194 ft 219 kts 283°
2026-04-21 15:04 36.96698 37.38064 4629 ft 236 kts 282°
2026-04-21 15:04 36.97068 37.35985 5071 ft 254 kts 282°
2026-04-21 15:04 36.97459 37.33792 5732 ft 263 kts 282°
2026-04-21 15:05 36.97878 37.31539 6448 ft 269 kts 282°
2026-04-21 15:05 36.98714 37.26950 7949 ft 277 kts 282°
2026-04-21 15:05 36.99136 37.24639 8745 ft 279 kts 282°
2026-04-21 15:06 36.99577 37.22229 9004 ft 286 kts 282°
2026-04-21 15:06 37.00044 37.19843 8988 ft 276 kts 287°
2026-04-21 15:06 37.00841 37.17764 8999 ft 264 kts 304°
2026-04-21 15:06 37.02130 37.16032 9547 ft 272 kts 315°
2026-04-21 15:07 37.03458 37.14463 10531 ft 264 kts 314°
2026-04-21 15:07 37.04790 37.12852 11148 ft 270 kts 314°
2026-04-21 15:07 37.06126 37.11232 11913 ft 270 kts 314°
2026-04-21 15:07 37.07465 37.09610 12569 ft 274 kts 314°
2026-04-21 15:08 37.08839 37.07945 13267 ft 276 kts 314°
2026-04-21 15:08 37.10212 37.06279 13939 ft 279 kts 314°
2026-04-21 15:08 37.11620 37.04623 14611 ft 282 kts 318°
2026-04-21 15:08 37.13185 37.03121 15271 ft 286 kts 323°
2026-04-21 15:09 37.14820 37.01660 15922 ft 289 kts 322°
2026-04-21 15:09 37.16426 37.00206 16558 ft 291 kts 322°
2026-04-21 15:09 37.18085 36.98701 17177 ft 294 kts 322°
2026-04-21 15:09 37.19739 36.97202 17789 ft 296 kts 322°
2026-04-21 15:10 37.21399 36.95697 18371 ft 299 kts 322°
2026-04-21 15:10 37.23078 36.94172 18950 ft 301 kts 321°
2026-04-21 15:10 37.24792 36.92617 19511 ft 304 kts 321°
2026-04-21 15:10 37.26492 36.91071 20074 ft 306 kts 321°
2026-04-21 15:11 37.28232 36.89489 20612 ft 309 kts 321°
2026-04-21 15:11 37.29967 36.87911 21142 ft 311 kts 321°
2026-04-21 15:11 37.31689 36.86343 21747 ft 309 kts 321°
2026-04-21 15:11 37.33416 36.84772 22380 ft 306 kts 321°
2026-04-21 15:12 37.35146 36.83201 22864 ft 308 kts 321°
2026-04-21 15:12 37.36885 36.81644 23393 ft 308 kts 323°
2026-04-21 15:12 37.38782 36.80422 23791 ft 317 kts 342°
2026-04-21 15:12 37.41006 36.80181 24179 ft 326 kts
2026-04-21 15:13 37.43147 36.81003 24658 ft 328 kts 24°
2026-04-21 15:13 37.45198 36.82429 24739 ft 343 kts 35°
2026-04-21 15:13 37.47081 36.84338 24800 ft 358 kts 45°
2026-04-21 15:13 37.48764 36.86706 24854 ft 372 kts 54°
2026-04-21 15:14 37.50185 36.89505 24939 ft 384 kts 64°
2026-04-21 15:14 37.51232 36.92590 25422 ft 382 kts 74°
2026-04-21 15:14 37.51857 36.95768 25976 ft 378 kts 84°
2026-04-21 15:14 37.52056 36.99037 26521 ft 373 kts 94°
2026-04-21 15:15 37.51830 37.02265 27070 ft 367 kts 104°
2026-04-21 15:15 37.51205 37.05305 27613 ft 359 kts 115°
2026-04-21 15:15 37.50186 37.08143 28164 ft 351 kts 125°
2026-04-21 15:15 37.48836 37.10648 28715 ft 341 kts 135°
2026-04-21 15:16 37.47226 37.12751 29242 ft 331 kts 146°
2026-04-21 15:16 37.45408 37.14418 29635 ft 325 kts 155°
2026-04-21 15:16 37.43381 37.15660 29893 ft 323 kts 165°
2026-04-21 15:16 37.41235 37.16458 30150 ft 324 kts 170°
2026-04-21 15:17 37.39054 37.17260 30404 ft 329 kts 166°
2026-04-21 15:17 37.36916 37.18254 30653 ft 335 kts 163°
2026-04-21 15:17 37.34755 37.19410 30906 ft 340 kts 161°
2026-04-21 15:17 37.32663 37.20773 31155 ft 345 kts 155°
2026-04-21 15:18 37.30598 37.22340 31406 ft 347 kts 155°
2026-04-21 15:18 37.28519 37.23875 31655 ft 347 kts 156°
2026-04-21 15:18 37.26423 37.25380 31905 ft 349 kts 156°
2026-04-21 15:18 37.24330 37.26850 32153 ft 349 kts 159°
2026-04-21 15:19 37.22103 37.28054 32402 ft 345 kts 168°
2026-04-21 15:19 37.19806 37.28702 32647 ft 339 kts 180°
2026-04-21 15:19 37.17478 37.28744 32902 ft 336 kts 187°
2026-04-21 15:19 37.15135 37.28632 33155 ft 338 kts 186°
2026-04-21 15:20 37.12775 37.28536 33406 ft 340 kts 186°
2026-04-21 15:20 37.10432 37.28449 33653 ft 341 kts 186°
2026-04-21 15:20 37.08052 37.28359 33895 ft 342 kts 189°
2026-04-21 15:20 37.05766 37.27696 33953 ft 338 kts 211°
2026-04-21 15:21 37.03995 37.25850 33966 ft 338 kts 237°
2026-04-21 15:21 37.03160 37.23116 33970 ft 346 kts 264°
2026-04-21 15:21 37.03500 37.20128 33972 ft 361 kts 290°
2026-04-21 15:21 37.05012 37.17521 33971 ft 382 kts 316°
2026-04-21 15:22 37.07371 37.15917 33981 ft 401 kts 337°
2026-04-21 15:22 37.10007 37.14766 33962 ft 406 kts 329°
2026-04-21 15:22 37.12326 37.12841 33950 ft 399 kts 311°
2026-04-21 15:22 37.14188 37.10236 33970 ft 401 kts 305°
2026-04-21 15:23 37.18009 37.05020 33947 ft 419 kts 311°
2026-04-21 15:23 37.22335 36.99981 33941 ft 432 kts 314°
2026-04-21 15:24 37.26865 36.94945 33933 ft 432 kts 315°
2026-04-21 15:24 37.29090 36.92515 33925 ft 420 kts 315°
2026-04-21 15:24 37.31255 36.90157 33930 ft 404 kts 315°
2026-04-21 15:25 37.33328 36.87897 33933 ft 387 kts 315°
2026-04-21 15:25 37.35303 36.85741 33935 ft 371 kts 315°
2026-04-21 15:25 37.39126 36.81562 33948 ft 366 kts 315°
2026-04-21 15:26 37.43026 36.77307 33943 ft 377 kts 315°
2026-04-21 15:26 37.46976 36.73029 33935 ft 373 kts 315°
2026-04-21 15:27 37.50827 36.68723 33937 ft 369 kts 309°
2026-04-21 15:27 37.54258 36.63893 33947 ft 380 kts 308°
2026-04-21 15:28 37.57843 36.58826 33940 ft 395 kts 308°
2026-04-21 15:28 37.61569 36.53563 33939 ft 410 kts 308°
2026-04-21 15:29 37.65415 36.48137 33938 ft 423 kts 309°
2026-04-21 15:29 37.69351 36.42572 33938 ft 431 kts 309°
2026-04-21 15:30 37.73356 36.36913 33934 ft 430 kts 309°
2026-04-21 15:30 37.77303 36.31306 33938 ft 428 kts 308°
2026-04-21 15:31 37.81227 36.25714 33940 ft 429 kts 308°
2026-04-21 15:31 37.85172 36.20092 33940 ft 428 kts 308°
2026-04-21 15:32 37.89125 36.14476 33951 ft 427 kts 308°
2026-04-21 15:32 37.93070 36.08859 33969 ft 429 kts 308°
2026-04-21 15:33 37.97007 36.03226 33980 ft 429 kts 308°
2026-04-21 15:33 38.00922 35.97616 33991 ft 426 kts 308°
2026-04-21 15:34 38.04852 35.91987 33994 ft 429 kts 308°
2026-04-21 15:34 38.08817 35.86285 33992 ft 429 kts 308°
2026-04-21 15:35 38.12735 35.80656 33992 ft 427 kts 308°
2026-04-21 15:35 38.16663 35.74992 33994 ft 428 kts 308°
2026-04-21 15:36 38.20588 35.69324 33993 ft 429 kts 308°
2026-04-21 15:36 38.24497 35.63666 33993 ft 429 kts 308°
2026-04-21 15:37 38.28419 35.57978 33994 ft 430 kts 308°
2026-04-21 15:37 38.32362 35.52259 33992 ft 429 kts 308°
2026-04-21 15:38 38.36261 35.46594 33993 ft 429 kts 308°
2026-04-21 15:38 38.40175 35.40895 33992 ft 427 kts 308°
2026-04-21 15:39 38.44077 35.35194 33994 ft 428 kts 308°
2026-04-21 15:39 38.48001 35.29462 33992 ft 428 kts 308°
2026-04-21 15:40 38.51874 35.23787 33992 ft 426 kts 308°
2026-04-21 15:40 38.55701 35.18057 33995 ft 427 kts 307°
2026-04-21 15:41 38.59535 35.12253 33994 ft 430 kts 307°
2026-04-21 15:41 38.63390 35.06423 33991 ft 427 kts 307°
2026-04-21 15:42 38.67194 35.00648 33993 ft 427 kts 307°
2026-04-21 15:42 38.71034 34.94808 33992 ft 428 kts 307°
2026-04-21 15:43 38.74828 34.89027 33993 ft 427 kts 307°
2026-04-21 15:43 38.78634 34.83228 33992 ft 427 kts 308°
2026-04-21 15:44 38.82370 34.77519 33981 ft 407 kts 308°
2026-04-21 15:44 38.85979 34.71977 34001 ft 411 kts 308°
2026-04-21 15:45 38.89714 34.66249 33997 ft 425 kts 308°
2026-04-21 15:45 38.93518 34.60419 33991 ft 427 kts 307°
2026-04-21 15:46 38.97278 34.54655 33989 ft 420 kts 307°
2026-04-21 15:46 39.00999 34.48938 33992 ft 416 kts 307°
2026-04-21 15:47 39.04706 34.43225 33993 ft 415 kts 307°
2026-04-21 15:47 39.08369 34.37572 33993 ft 414 kts 307°
2026-04-21 15:48 39.11733 34.31623 33994 ft 411 kts 297°
2026-04-21 15:48 39.14969 34.25520 33991 ft 414 kts 307°
2026-04-21 15:49 39.18730 34.19957 33993 ft 414 kts 307°
2026-04-21 15:49 39.22447 34.14307 33993 ft 414 kts 307°
2026-04-21 15:50 39.26155 34.08636 33993 ft 414 kts 307°
2026-04-21 15:50 39.29842 34.02956 33992 ft 414 kts 306°
2026-04-21 15:51 39.33513 33.97279 33710 ft 406 kts 306°
2026-04-21 15:51 39.35294 33.94525 33265 ft 400 kts 306°
2026-04-21 15:51 39.37063 33.91779 32792 ft 394 kts 306°
2026-04-21 15:52 39.38805 33.89066 32316 ft 389 kts 306°
2026-04-21 15:52 39.40500 33.86424 31851 ft 385 kts 306°
2026-04-21 15:52 39.42210 33.83757 31381 ft 384 kts 306°
2026-04-21 15:52 39.43903 33.81110 30911 ft 389 kts 306°
2026-04-21 15:53 39.45623 33.78424 30421 ft 385 kts 306°
2026-04-21 15:53 39.47305 33.75754 29933 ft 381 kts 305°
2026-04-21 15:53 39.48941 33.73107 29460 ft 377 kts 304°
2026-04-21 15:53 39.50575 33.70466 28994 ft 378 kts 305°
2026-04-21 15:54 39.52204 33.67819 28518 ft 380 kts 304°
2026-04-21 15:54 39.53839 33.65169 28041 ft 377 kts 304°
2026-04-21 15:54 39.55530 33.62559 27555 ft 375 kts 308°
2026-04-21 15:54 39.57411 33.60248 27081 ft 376 kts 319°
2026-04-21 15:55 39.59663 33.58567 26611 ft 380 kts 333°
2026-04-21 15:55 39.62136 33.57400 26127 ft 383 kts 341°
2026-04-21 15:55 39.64748 33.56559 25635 ft 391 kts 344°
2026-04-21 15:55 39.67377 33.55794 25133 ft 388 kts 344°
2026-04-21 15:56 39.69988 33.55024 24635 ft 385 kts 344°
2026-04-21 15:56 39.72586 33.54247 24146 ft 382 kts 343°
2026-04-21 15:56 39.75061 33.53178 23657 ft 376 kts 333°
2026-04-21 15:56 39.77332 33.51577 23174 ft 368 kts 322°
2026-04-21 15:57 39.79251 33.49430 22710 ft 360 kts 309°
2026-04-21 15:57 39.80806 33.46946 22260 ft 354 kts 303°
2026-04-21 15:57 39.82251 33.44401 21811 ft 351 kts 303°
2026-04-21 15:57 39.83702 33.41870 21364 ft 349 kts 303°
2026-04-21 15:58 39.85145 33.39349 20923 ft 351 kts 303°
2026-04-21 15:58 39.86606 33.36787 20465 ft 352 kts 304°
2026-04-21 15:58 39.88044 33.34261 20017 ft 349 kts 303°
2026-04-21 15:58 39.89483 33.31728 19567 ft 346 kts 303°
2026-04-21 15:59 39.90903 33.29222 19122 ft 344 kts 303°
2026-04-21 15:59 39.92314 33.26729 18679 ft 341 kts 303°
2026-04-21 15:59 39.93705 33.24269 18241 ft 339 kts 303°
2026-04-21 15:59 39.95101 33.21797 17801 ft 336 kts 304°
2026-04-21 16:00 39.96471 33.19371 17347 ft 335 kts 304°
2026-04-21 16:00 39.97847 33.16934 16914 ft 332 kts 304°
2026-04-21 16:00 39.99204 33.14529 16523 ft 329 kts 304°
2026-04-21 16:00 40.00544 33.12190 16352 ft 318 kts 308°
2026-04-21 16:01 40.02192 33.10323 16250 ft 309 kts 331°
2026-04-21 16:01 40.04193 33.09559 16057 ft 302 kts 358°
2026-04-21 16:01 40.06239 33.09969 15696 ft 299 kts 22°
2026-04-21 16:01 40.08037 33.11231 15351 ft 294 kts 37°
2026-04-21 16:02 40.09676 33.12820 15009 ft 292 kts 38°
2026-04-21 16:02 40.11297 33.14384 14671 ft 290 kts 38°
2026-04-21 16:02 40.12917 33.15932 14338 ft 287 kts 38°
2026-04-21 16:02 40.14526 33.17473 14006 ft 285 kts 38°
2026-04-21 16:03 40.16093 33.18973 13683 ft 283 kts 38°
2026-04-21 16:03 40.17681 33.20494 13356 ft 280 kts 38°
2026-04-21 16:03 40.19233 33.21981 13036 ft 278 kts 38°
2026-04-21 16:03 40.20779 33.23464 12718 ft 275 kts 38°
2026-04-21 16:04 40.22314 33.24936 12403 ft 273 kts 38°
2026-04-21 16:04 40.23843 33.26404 12088 ft 271 kts 38°
2026-04-21 16:04 40.25350 33.27851 11778 ft 268 kts 38°
2026-04-21 16:04 40.26851 33.29293 11470 ft 266 kts 38°
2026-04-21 16:05 40.28332 33.30718 11165 ft 264 kts 38°
2026-04-21 16:05 40.29801 33.32132 10863 ft 262 kts 38°
2026-04-21 16:05 40.31261 33.33537 10564 ft 260 kts 38°
2026-04-21 16:05 40.32714 33.34939 10317 ft 266 kts 37°
2026-04-21 16:06 40.34203 33.36375 10011 ft 264 kts 37°
2026-04-21 16:06 40.35670 33.37789 9710 ft 262 kts 37°
2026-04-21 16:06 40.37126 33.39191 9411 ft 260 kts 37°
2026-04-21 16:06 40.38557 33.40556 9313 ft 249 kts 37°
2026-04-21 16:07 40.39984 33.41916 9231 ft 262 kts 37°
2026-04-21 16:07 40.41466 33.43332 8977 ft 265 kts 37°
2026-04-21 16:07 40.42952 33.44750 8721 ft 261 kts 37°
2026-04-21 16:07 40.44398 33.46130 8471 ft 259 kts 36°
2026-04-21 16:08 40.47611 33.48169 7983 ft 257 kts
2026-04-21 16:08 40.49386 33.48278 7809 ft 255 kts 352°
2026-04-21 16:08 40.51069 33.47625 7632 ft 253 kts 329°
2026-04-21 16:09 40.52424 33.46213 7459 ft 250 kts 307°
2026-04-21 16:09 40.53258 33.44252 7284 ft 246 kts 284°
2026-04-21 16:09 40.53445 33.42063 7109 ft 241 kts 262°
2026-04-21 16:09 40.52970 33.39988 6935 ft 238 kts 239°
2026-04-21 16:10 40.51915 33.38338 6762 ft 237 kts 218°
2026-04-21 16:10 40.50597 33.37061 6595 ft 236 kts 216°
2026-04-21 16:10 40.49268 33.35797 6419 ft 236 kts 216°
2026-04-21 16:10 40.47944 33.34537 6244 ft 235 kts 216°
2026-04-21 16:11 40.46617 33.33279 6067 ft 234 kts 216°
2026-04-21 16:11 40.45297 33.32030 5891 ft 234 kts 216°
2026-04-21 16:11 40.43986 33.30793 5716 ft 233 kts 216°
2026-04-21 16:11 40.42668 33.29534 5543 ft 232 kts 218°
2026-04-21 16:12 40.41512 33.28087 5487 ft 229 kts 232°
2026-04-21 16:12 40.40703 33.26281 5500 ft 232 kts 239°
2026-04-21 16:12 40.39690 33.24636 5490 ft 233 kts 218°
2026-04-21 16:12 40.38337 33.23501 5501 ft 233 kts 211°
2026-04-21 16:13 40.36968 33.22382 5496 ft 233 kts 214°
2026-04-21 16:13 40.35634 33.21173 5496 ft 232 kts 216°
2026-04-21 16:13 40.34371 33.19980 5506 ft 216 kts 216°
2026-04-21 16:13 40.33251 33.18910 5490 ft 181 kts 217°
2026-04-21 16:14 40.32313 33.18011 5454 ft 151 kts 217°
2026-04-21 16:14 40.31518 33.17249 5467 ft 141 kts 217°
2026-04-21 16:14 40.30711 33.16474 5557 ft 149 kts 217°
2026-04-21 16:14 40.29871 33.15667 5495 ft 150 kts 217°
2026-04-21 16:15 40.29024 33.14855 5491 ft 150 kts 217°
2026-04-21 16:15 40.28184 33.14048 5513 ft 149 kts 217°
2026-04-21 16:15 40.27343 33.13242 5495 ft 150 kts 217°
2026-04-21 16:15 40.26504 33.12437 5490 ft 150 kts 217°
2026-04-21 16:16 40.25659 33.11627 5493 ft 150 kts 217°
2026-04-21 16:16 40.24817 33.10821 5494 ft 150 kts 217°
2026-04-21 16:16 40.23975 33.10015 5484 ft 151 kts 217°
2026-04-21 16:16 40.23124 33.09199 5285 ft 151 kts 217°
2026-04-21 16:17 40.22277 33.08390 5106 ft 149 kts 217°
2026-04-21 16:17 40.21447 33.07596 4898 ft 147 kts 217°
2026-04-21 16:17 40.20627 33.06811 4709 ft 145 kts 217°
2026-04-21 16:17 40.19817 33.06036 4517 ft 144 kts 217°
2026-04-21 16:18 40.19008 33.05264 4322 ft 144 kts 218°
2026-04-21 16:18 40.18201 33.04493 4128 ft 144 kts 218°
2026-04-21 16:18 40.17405 33.03732 3937 ft 144 kts 218°
2026-04-21 16:18 40.16598 33.02963 3744 ft 143 kts 218°
2026-04-21 16:19 40.15796 33.02197 3552 ft 143 kts 218°
2026-04-21 16:19 40.14986 33.01424 3359 ft 143 kts 218°
2026-04-21 16:19 40.14192 33.00668 3152 ft 135 kts 217°
2026-04-21 16:19 40.13532 33.00036 3135 ft 100 kts 217°
2026-04-21 16:20 40.13110 32.99635 3134 ft 45 kts 215°
2026-04-21 16:20 40.12946 32.99488 3134 ft 26 kts 204°
2026-04-21 16:20 40.12797 32.99445 3134 ft 16 kts 187°
2026-04-21 16:20 40.12750 32.99438 3134 ft 0 kts 186°
2026-04-21 16:21 40.12742 32.99437 3134 ft 7 kts 186°
2026-04-21 16:22 40.12679 32.99428 3134 ft 12 kts 186°
2026-04-21 16:22 40.12564 32.99403 3134 ft 17 kts 198°
2026-04-21 16:22 40.12478 32.99338 3134 ft 14 kts 217°
2026-04-21 16:22 40.12380 32.99259 3134 ft 17 kts 204°
2026-04-21 16:23 40.12276 32.99213 3134 ft 13 kts 192°
2026-04-21 16:23 40.12191 32.99198 3134 ft 13 kts 186°
2026-04-21 16:23 40.12066 32.99179 3134 ft 18 kts 187°
2026-04-21 16:23 40.11964 32.99147 3134 ft 13 kts 207°
2026-04-21 16:24 40.11869 32.99060 3134 ft 16 kts 216°
2026-04-21 16:24 40.11782 32.99075 3134 ft 12 kts 136°
2026-04-21 16:24 40.11696 32.99119 3134 ft 13 kts 203°
2026-04-21 16:24 40.11648 32.99091 3134 ft 3 kts 154°
2026-04-21 16:25 40.11624 32.99106 3134 ft 4 kts 148°
2026-04-21 16:25 40.11611 32.99117 3134 ft 0 kts 146°